IU2EVW-13 Weather Reports


time (UTC)temp
F
wind
direction
speed
knots
gust
knots
rain 1hr
in
rain 24hr
in
rain mn
in
humidity
%
barometer
mb
20260507201853 54 0.0 0.0 0.00 0.00 0.00 59 1016.5
20260507195852 54 0.0 0.0 0.00 0.00 0.00 59 1016.2
20260507193850 55 0.0 0.0 0.00 0.00 0.00 58 1016.0
20260507191849 55 0.0 0.0 0.00 0.00 0.00 56 1015.8
20260507185847 57 0.0 0.0 0.00 0.00 0.00 53 1015.4
20260507183846 57 0.0 0.0 0.00 0.00 0.00 53 1015.1
20260507181845 59 0.0 0.0 0.00 0.00 0.00 49 1014.7
20260507175843 64 0.0 0.0 0.00 0.00 0.00 40 1014.4
20260507173842 69 0.0 0.0 0.00 0.00 0.00 36 1014.2
20260507171841 71 0.0 0.0 0.00 0.00 0.00 33 1014.0
20260507165839 73 0.0 0.0 0.00 0.00 0.00 31 1013.8
20260507163838 75 0.0 0.0 0.00 0.00 0.00 26 1013.9
20260507161837 76 0.0 0.0 0.00 0.00 0.00 25 1013.9
20260507155836 76 0.0 0.0 0.00 0.00 0.00 28 1013.7
20260507153834 65 0.0 0.0 0.00 0.00 0.00 38 1014.0
20260507151833 74 0.0 0.0 0.00 0.00 0.00 29 1013.9
20260507145832 75 0.0 0.0 0.00 0.00 0.00 26 1013.8
20260507143830 79 0.0 0.0 0.00 0.00 0.00 22 1013.9
20260507141829 70 0.0 0.0 0.00 0.00 0.00 33 1014.1
20260507135828 69 0.0 0.0 0.00 0.00 0.00 35 1014.2
20260507133826 70 0.0 0.0 0.00 0.00 0.00 33 1014.3
20260507132317 69 0.0 0.0 0.00 0.00 0.00 39 1014.5
20260507130316 68 0.0 0.0 0.00 0.00 0.00 39 1014.7
20260507124318 65 0.0 0.0 0.00 0.00 0.00 42 1014.8
20260507122313 65 0.0 0.0 0.00 0.00 0.00 44 1015.0
20260507120312 63 0.0 0.0 0.00 0.00 0.00 47 1015.0
20260507114310 63 0.0 0.0 0.00 0.00 0.00 46 1015.2
20260507112309 62 0.0 0.0 0.00 0.00 0.00 48 1015.2
20260507110308 61 0.0 0.0 0.00 0.00 0.00 50 1015.4
20260507104306 60 0.0 0.0 0.00 0.00 0.00 50 1015.6
20260507102307 59 0.0 0.0 0.00 0.00 0.00 57 1015.8
20260507100304 57 0.0 0.0 0.00 0.00 0.00 61 1015.9
20260507094302 57 0.0 0.0 0.00 0.00 0.00 69 1016.0
20260507092301 54 0.0 0.0 0.00 0.00 0.00 66 1016.2
20260507090302 52 0.0 0.0 0.00 0.00 0.00 73 1016.3
20260507084258 51 0.0 0.0 0.00 0.00 0.00 75 1016.3
20260507082257 50 0.0 0.0 0.00 0.00 0.00 77 1016.4
20260507080255 49 0.0 0.0 0.00 0.00 0.00 82 1016.2
20260507074254 48 0.0 0.0 0.00 0.00 0.00 83 1016.4
20260507072253 48 0.0 0.0 0.00 0.00 0.00 85 1016.3
20260507070251 47 0.0 0.0 0.00 0.00 0.00 84 1016.2
20260507064250 46 0.0 0.0 0.00 0.00 0.00 84 1016.3
20260507062249 45 0.0 0.0 0.00 0.00 0.00 84 1016.5
20260507060247 44 0.0 0.0 0.00 0.00 0.00 84 1016.4
20260507054246 44 0.0 0.0 0.00 0.00 0.00 84 1016.2
20260507052244 43 0.0 0.0 0.00 0.00 0.00 85 1016.0
20260507050243 43 0.0 0.0 0.00 0.00 0.00 85 1015.7
20260507044242 43 0.0 0.0 0.00 0.00 0.00 86 1015.7
20260507042241 43 0.0 0.0 0.00 0.00 0.00 85 1015.7
20260507040239 44 0.0 0.0 0.00 0.00 0.00 85 1015.6
20260507034238 44 0.0 0.0 0.00 0.00 0.00 84 1015.7
20260507032236 44 0.0 0.0 0.00 0.00 0.00 84 1015.7
20260507030235 45 0.0 0.0 0.00 0.00 0.00 83 1015.5
20260507024234 44 0.0 0.0 0.00 0.00 0.00 84 1015.7
20260507022232 44 0.0 0.0 0.00 0.00 0.00 85 1015.5
20260507020231 45 0.0 0.0 0.00 0.00 0.00 83 1015.1
20260507014230 44 0.0 0.0 0.00 0.00 0.00 83 1015.6
20260507012228 45 0.0 0.0 0.00 0.00 0.00 82 1015.2
20260507010227 45 0.0 0.0 0.00 0.00 0.00 83 1015.5
20260507004226 45 0.0 0.0 0.00 0.00 0.00 83 1015.6
20260507002224 45 0.0 0.0 0.00 0.00 0.00 85 1015.8
20260507000223 45 0.0 0.0 0.00 0.00 0.00 85 1015.8
20260506234221 44 0.0 0.0 0.00 0.00 0.00 85 1016.4
20260506232220 44 0.0 0.0 0.00 0.00 0.00 85 1016.0
20260506230219 45 0.0 0.0 0.00 0.00 0.00 87 1015.6
20260506224217 44 0.0 0.0 0.00 0.00 0.00 86 1015.4
20260506222216 45 0.0 0.0 0.00 0.00 0.00 84 1015.2
20260506220214 44 0.0 0.0 0.00 0.00 0.00 85 1014.9
20260506214213 45 0.0 0.0 0.00 0.00 0.00 84 1014.9
20260506212212 45 0.0 0.0 0.00 0.00 0.00 83 1014.9
20260506210211 45 0.0 0.0 0.00 0.00 0.00 83 1014.9
20260506204209 44 0.0 0.0 0.00 0.00 0.00 88 1015.0